Погода в Дашогузе

Поиск расширенной информации на нашем сайте:

Полезная информация:

Новости сайта



02.01.2020
Опубликован Долгосрочный прогноз погоды по городам России и ближнего зарубежья на январь 2020 года.
Карты: Прогноз на январь и февраль 2020 года, Сравнение прогнозируемой аномалии приземной температуры воздуха на январь 2020 года по разным моделям.




Погода в Дашогузе - сегодня

Время (UTC), дата Ветер
(°,м/с) 
Видим.   Явления Облачность Т
(°С)
Тd
(°С)
f(%) Тe
(°С)
Pmin
(гПа)
dP
(гПа)
Po
(мм)
O2
(г/м3)
Тmin Tmax R s Состояние
почвы
09 16.01.21 330 (СЗ) 10 км    ясно 
+6.9 +0.9 66 +5  1017  1.2  755  297           
12 16.01.21 360 (С) 10 км    ясно 
+5.4 +0.8 72 +3  1019  757  299           
15 16.01.21 320 (СЗ) 2000 м  дымка  3/0 верхняя 
[Ci fib]
+0.9 -1.7 83 +2  1020.2  757  304    +7.7       
18 16.01.21 060 (СВ) 0500 м  туман  3/0 верхняя 
[Ci fib]
-2.8 -3.4 96 -4  1020.1  -0.2  757  309    +7.7       
21 16.01.21 030 (СВ) 1000 м  дымка  ясно 
-4.4 -5 96 -8  1019.9  -0.3  757  311           
00 17.01.21 080 (В) 4000 м  дымка  ясно 
-4.5 -5.1 96 -9  1018.1  -1.8  756  310           
03 17.01.21 060 (СВ) 10 км    3/0 верхняя 
[Ci fib]
-4.3 -4.9 96 -7  1017.3  -0.8  755  310  -4.6        замёрзшая 
06 17.01.21 080 (В) 4000 м    4/0 верхняя 
[Ci fib]
+1.4 -2.1 77 -1  1016  -1.1  754  303  -4.6         
09 17.01.21 100 (В) 4000 м    4/0 верхняя 
[Ci fib]
+8.5 -0.5 53 +7  1011.2  -4.4  751  293           
12 17.01.21 100 (В) 4000 м    9/0 верхняя 
[Ci sp]
+8.6 +0 55 +7  1010.3  -0.9  750  293           
15 17.01.21 090 (В) 10 км    10/0 верхняя 
[Ci sp]
+3.6 -2.4 65 +1  1009.7  -0.9  749  298    +9.4       
18 17.01.21 070 (В) 10 км    10/0 верхняя 
[Ci sp]
+0.5 -4.2 71 -2  1008.5  -1.3  749  302    +9.4       
21 17.01.21 060 (СВ) 10 км    10/0 верхняя 
[Ci sp]
+0.6 -3.7 73 -1  1007.5  -0.9  748  301           
00 18.01.21 080 (В) 10 км    6/0 верхняя 
[Ci fib]
-0.8 -4.3 77 -3  1006.7  -0.9  747  302           
03 18.01.21 040 (СВ) 10 км    3/0 верхняя 
[Ci fib]
-3.1 -5.9 81 -4  1007.7  748  305  -3.3        замёрзшая 
06 18.01.21 090 (В) 10 км    6/0 верхняя 
[Ci fib]
+1.5 -3.3 70 +2  1008.5  0.9  749  300  -3.3         
09 18.01.21 280 (З) 10 км    10/0 верхняя 
[Cs]
+10.2 -0.2 48 +11  1007.6  -0.6  748  291           
12 18.01.21 360 (С) 10 км    4/0 верхняя 
[Ci fib]
+12.4 +0.4 44 +14  1008.4  0.9  749  289           
15 18.01.21 220 (ЮЗ) 10 км    4/0 верхняя 
[Ci fib]
+3.4 -3 63 +2  1009.6  0.9  749  299    +12.8       
18 18.01.21 180 (Ю) 10 км    3/0 верхняя 
[Ci fib]
+0.5 -2.1 83 1009.9  0.2  750  302    +12.8       
21 18.01.21 180 (Ю) 4000 м    3/0 верхняя 
[Ci fib]
-1 -2.6 89 -3  1010.3  0.3  750  304           
00 19.01.21 180 (Ю) 10 км    3/0 верхняя 
[Ci fib]
+0.2 -1.5 88 -1  1010.1  -0.2  750  302           
03 19.01.21 180 (Ю) 10 км    9/0 средняя 
[Ac trans]
+1.6 -0.3 87 +1  1011  750  301  -1.3        замёрзшая 
06 19.01.21 260 (З) 10 км    10/0 средняя 
[Ac As]
+5.1 +2.1 81 +3  1013.6  2.7  752  297  -1.3         
09 19.01.21 260 (З) 10 км    10/0 средняя 
[Ac As]
+7.8 +3.6 75 +6  1013.3  -0.2  752  294           
Время (UTC), дата Ветер
(°,м/с) 
Видим.   Явления Облачность Т
(°С)
Тd
(°С)
f(%) Тe
(°С)
Pmin
(гПа)
dP
(гПа)
Po
(мм)
O2
(г/м3)
Тmin Tmax R s Состояние
почвы

Для получения пояснительной информации подведите курсор к названию столбца.

ПОГОДА в Дашогузе - архив

Всё, что Вы хотите узнать о погоде в Дашогузе - удобно и подробно!

Выберите нужную дату (начиная с 1 января 2019* года) и нажмите кнопку "Найти".
Будут отображены архивные сводки погоды по пункту Дашогуз, начиная с указанной даты.


Отображать данные в формате CSV (для использования в таблицах Excel)


Внимание! Наш архив погоды предназначен исключительно для личного некоммерческого использования в познавательных целях. Если Вам необходимы официальные справки о состоянии погоды (для производственных, юридических, коммерческих и т.п. целей), обращайтесь в органы Росгидромета.

*Примечание: данная дата относится к архиву по метеостанциям СССР (Россия, СНГ, Балтия).
Архив по метеостанциям Зарубежной Европы и Азии (кроме Китая) хранится 10 дней, по другим регионам земного шара (Китай, Африка, Америка, Австралия, Океания) - 1 день.

Дашогуз - район местоположения метеостанции


Название, широта, долгота, высота метеостанции:
Дашогуз (Ташауз) 41.8°ш. 59.8°д. 82 м над ур. моря [Туркменистан]

Дополнительная информация

В oтличие oт бoльшинства пoгoдных сайтoв мы публикуем пoдрoбную метеoинфoрмацию в детальнoм прoфессиoнальнoм фoрмате.

Характеристики температуры и влажнoсти вoздуха измеряются на высoте 2 м в тени вдали oт зданий и деревьев.
Скoрoсть ветра измеряется на высoте 10 м (на урoвне рoста челoвека скoрoсть ветра ниже в 1.5-2 раза). Если метеoстанция нахoдится в гoрoде или в лесу, тo скoрoсть ветра занижена на 2-4 м/с пo сравнению с oткрытым местoм. Скoрoсть ветра над акватoриями крупных рек и oзёр, а также на вершинах хoлмoв на 2-5 м/с выше, чем в oбычных услoвиях.
Атмoсфернoе давление в разных тoчках местнoсти мoжет значительнo oтличаться oт давления на метеoстанции, в зависимoсти oт услoвий рельефа (при пoдъёме на 10 м давление пoнижается примернo на 1 мм рт.ст.).